Weather History for Estherville, IA

Change the Weather History Date:

Sunday, July 15, 2012

  Actual Average Record
Temperature  
Mean Temperature 76 °F 72 °F  
Max Temperature 89 °F 83 °F 95 °F (1981)
Min Temperature 62 °F 61 °F 49 °F (1952)
Degree Days  
Heating Degree Days 0 0  
Month to date heating degree days 0 0  
Since 1 June heating degree days 18 41  
Since 1 July heating degree days 0 0  
Cooling Degree Days 11 7  
Month to date cooling degree days 175 105  
Year to date cooling degree days 471 278  
Since 1 June cooling degree days 382 242  
Growing Degree Days 25 (Base 50)    
Moisture  
Dew Point 68 °F    
Average Humidity 74    
Maximum Humidity 93    
Minimum Humidity 55    
Precipitation  
Precipitation 0.00 in 0.15 in 0.60 in (1984)
Month to date precipitation T 2.03  
Year to date precipitation 15.47  
Sea Level Pressure  
Sea Level Pressure 29.99 in    
Wind  
Wind Speed 7 mph (SE)    
Max Wind Speed 15 mph    
Max Gust Speed 20 mph    
Visibility 9 miles    
Events      
T = Trace of Precipitation, MM = Missing Value Source: NWS Daily Summary

Daily Weather History Graph

Daily Weather History Graph

Search for Another Location

Airport:

Trip Planner

Search our weather history database for the weather conditions in past years. The results will help you decide how hot, cold, wet, or windy it might be!

Date:

Astronomy

Jul. 15, 2012 Rise Set
Actual Time 5:52 AM CDT 8:56 PM CDT
Civil Twilight 5:18 AM CDT 9:31 PM CDT
Nautical Twilight 4:34 AM CDT 10:15 PM CDT
Astronomical Twilight 3:41 AM CDT 11:07 PM CDT
Moon 2:49 AM CDT (7/15) 6:14 PM CDT (7/15)
Length of Visible Light 16h 13m
Length of Day
15h 04m
Waning Crescent, 11% of the Moon is Illuminated
Jul 15
Waning Crescent
Jul 18
New
Jul 26
First Quarter
Aug 1
Full
Aug 9
Last Quarter

Hourly Weather History & Observations

Time (CDT) Temp. Heat Index Dew Point Humidity Pressure Visibility Wind Dir Wind Speed Gust Speed Precip Events Conditions
12:52 AM 66.0 °F - 63.0 °F 90% 30.04 in 8.0 mi Calm Calm - N/A   Clear
1:52 AM 64.0 °F - 61.0 °F 90% 30.03 in 8.0 mi Calm Calm - N/A   Clear
2:52 AM 64.0 °F - 61.0 °F 90% 30.03 in 9.0 mi Calm Calm - N/A   Clear
3:52 AM 63.0 °F - 60.1 °F 90% 30.04 in 8.0 mi Calm Calm - N/A   Clear
4:52 AM 62.1 °F - 59.0 °F 90% 30.03 in 6.0 mi Calm Calm - N/A   Clear
5:52 AM 62.1 °F - 60.1 °F 93% 30.03 in 4.0 mi Calm Calm - N/A   Clear
7:52 AM 70.0 °F - 64.9 °F 84% 30.04 in 6.0 mi Calm Calm - N/A   Haze
8:52 AM 78.1 °F - 68.0 °F 71% 30.05 in 9.0 mi SE 6.9 mph - N/A   Clear
9:52 AM 81.0 °F 83.8 °F 68.0 °F 65% 30.04 in 9.0 mi SE 8.1 mph - N/A   Clear
10:52 AM 82.9 °F 85.8 °F 68.0 °F 60% 30.04 in 9.0 mi SE 9.2 mph - N/A   Clear
11:52 AM 84.0 °F 87.0 °F 68.0 °F 58% 30.04 in 10.0 mi SE 10.4 mph - N/A   Clear
12:52 PM 86.0 °F 90.1 °F 69.1 °F 57% 30.03 in 10.0 mi SE 10.4 mph - N/A   Clear
1:52 PM 88.0 °F 93.8 °F 71.1 °F 57% 30.01 in 10.0 mi SE 9.2 mph - N/A   Clear
2:52 PM 87.1 °F 92.0 °F 70.0 °F 57% 29.99 in 10.0 mi SSE 11.5 mph - N/A   Clear
3:52 PM 88.0 °F 93.8 °F 71.1 °F 57% 29.97 in 10.0 mi SE 11.5 mph - N/A   Clear
4:52 PM 86.0 °F 90.7 °F 70.0 °F 59% 29.96 in 10.0 mi SE 13.8 mph - N/A   Clear
5:52 PM 84.9 °F 90.7 °F 72.0 °F 65% 29.95 in 10.0 mi SE 9.2 mph - N/A   Clear
6:52 PM 84.0 °F 90.2 °F 73.0 °F 69% 29.94 in 10.0 mi SE 8.1 mph - N/A   Clear
7:52 PM 84.0 °F 90.2 °F 73.0 °F 69% 29.92 in 10.0 mi SE 8.1 mph - N/A   Clear
8:52 PM 80.1 °F 83.8 °F 72.0 °F 76% 29.91 in 9.0 mi SE 6.9 mph - N/A   Clear
9:52 PM 77.0 °F - 71.1 °F 82% 29.92 in 10.0 mi SE 8.1 mph - N/A   Clear
10:52 PM 75.0 °F - 70.0 °F 84% 29.94 in 9.0 mi SSE 8.1 mph - N/A   Clear
11:52 PM 73.9 °F - 70.0 °F 87% 29.93 in 9.0 mi South 8.1 mph - N/A   Clear